星链-31029 (STARLINK-31029 )

导读

STARLINK-31029是美国SpaceX公司星链(Starlink)星座的一员,于2024年1月3日发射入轨。星链是全球低轨宽带互联网星座,该卫星采用平板设计,搭载氪工质霍尔推进器与Ku/Ka波段通信载荷,具备自主避撞能力,服务全球高速互联网接入,同时支持手机直连业务,在退役后会受控离轨,再入大气层烧毁,减少空间碎片影响。

Basic Information
目录编号:
58712
目录名称:
STARLINK-31029
国际标识:
2024-002H
轨道中心:
EARTH
卫星名称:
星链-31029
卫星全名:
星链-31029 (STARLINK-31029 )
卫星状态:
在轨 (已飞行897 天)
发射日期:
2024-01-03 UTC
国别 :
美国 (US)
星等 :
--
Orbit Information
数据来源 国际轨道数据 AOE轨道数据
星历时间 2026-06-17T11:17:26+0800
1天前
查看轨道信息
2026-06-16T03:00:00+0800
2天前
查看轨道信息
半长轴 6853.378km 6853.378km
偏心率 0.0001398 0.000138
轨道倾角 53.159° 53.159°
近地点辐角 96.015° 93.809°
升交点赤经 127.838° 134.089°
平近点角 264.101° 50.545°
近地点 474.282km 474.295km
远地点 476.2km 476.187km
周期 94.106分钟 94.106分钟
每日圈数 15.301914 15.301914
Detailed Information
固有亮度:
5
最大亮度:
0.3
卫星平台:
Starlink v2.0 mini
覆盖范围:
全球
运营商:
太空探索技术公司
运营商所在国:
美国
制造商(研发单位):
太空探索技术公司
制造商所在国:
美国
使用方式:
暂无
Satellite Introduction
星链(Starlink)计划是由太空探索技术公司(SpaceX)提出的一个巨型低轨卫星互联网星座项目,计划在2019年至2024年间在太空搭建由约1.2万颗卫星组成的“星链”网络,其中1584颗将部署在地球上空550千米处的近地轨道,并从2020年开始工作。该卫星仍在工作。
2D Orbit Map
3D Orbit Map
Orbit Altitude Analysis Chart
Orbit Inclination Analysis Chart
Orbit Comprehensive Analysis Chart
View Comprehensive Chart